Weather History for Casper, WY

Change the Weather History Date:

Thursday, January 24, 2013

  Actual Average Record
Temperature  
Mean Temperature 41 °F 25 °F  
Max Temperature 51 °F 35 °F 56 °F (2005)
Min Temperature 31 °F 15 °F -40 °F (1949)
Degree Days  
Heating Degree Days 24 40  
Month to date heating degree days 972 965  
Since 1 July heating degree days 3695 4094  
Cooling Degree Days 0 0  
Month to date cooling degree days 0 0  
Year to date cooling degree days 0 0  
Moisture  
Dew Point 20 °F    
Average Humidity 52    
Maximum Humidity 78    
Minimum Humidity 25    
Precipitation  
Precipitation 0.00 in 0.01 in 0.31 in (2009)
Month to date precipitation 0.11 0.39  
Year to date precipitation 0.11 0.39  
Snow  
Snow 0.00 in 0.30 in - ()
Month to date snowfall 2.2 7.1  
Since 1 July snowfall 20.9 37.6  
Snow Depth 0.00 in    
Sea Level Pressure  
Sea Level Pressure 30.01 in    
Wind  
Wind Speed 19 mph (SW)    
Max Wind Speed 35 mph    
Max Gust Speed 45 mph    
Visibility 10 miles    
Events      
T = Trace of Precipitation, MM = Missing Value Source: NWS Daily Summary

Daily Weather History Graph

Daily Weather History Graph

Search for Another Location

Airport:

Trip Planner

Search our weather history database for the weather conditions in past years. The results will help you decide how hot, cold, wet, or windy it might be!

Date:

Astronomy

Jan. 24, 2013 Rise Set
Actual Time 7:27 AM MST 5:08 PM MST
Civil Twilight 6:57 AM MST 5:39 PM MST
Nautical Twilight 6:22 AM MST 6:13 PM MST
Astronomical Twilight 5:49 AM MST 6:47 PM MST
Moon 3:12 PM MST (1/24) 5:28 AM MST (1/24)
Length of Visible Light 10h 42m
Length of Day
9h 40m
Waxing Gibbous, 95% of the Moon is Illuminated
Jan 24
Waxing Gibbous
Jan 26
Full
Feb 3
Last Quarter
Feb 10
New
Feb 17
First Quarter

Hourly Weather History & Observations

Time (MST) Temp. Windchill Dew Point Humidity Pressure Visibility Wind Dir Wind Speed Gust Speed Precip Events Conditions
12:53 AM 41.0 °F 31.6 °F 8.1 °F 26% 29.97 in 10.0 mi SW 20.7 mph - N/A   Clear
1:53 AM 39.9 °F 30.2 °F 9.0 °F 28% 29.97 in 10.0 mi SW 20.7 mph - N/A   Clear
2:53 AM 39.9 °F 30.0 °F 9.0 °F 28% 29.97 in 10.0 mi SW 21.9 mph - N/A   Clear
3:53 AM 39.0 °F 33.4 °F 9.0 °F 29% 29.99 in 10.0 mi WSW 8.1 mph - N/A   Clear
4:53 AM 39.0 °F 31.8 °F 9.0 °F 29% 29.99 in 10.0 mi SW 11.5 mph - N/A   Clear
5:53 AM 39.0 °F 30.3 °F 10.0 °F 30% 29.99 in 10.0 mi SW 16.1 mph 25.3 mph N/A   Mostly Cloudy
6:53 AM 39.9 °F 30.0 °F 10.9 °F 31% 29.98 in 10.0 mi SW 21.9 mph 31.1 mph N/A   Partly Cloudy
7:53 AM 39.0 °F 27.8 °F 12.0 °F 33% 29.97 in 10.0 mi SW 26.5 mph 35.7 mph N/A   Clear
8:53 AM 43.0 °F 33.5 °F 14.0 °F 31% 29.96 in 10.0 mi SW 24.2 mph 35.7 mph N/A   Clear
9:53 AM 46.0 °F 38.5 °F 19.9 °F 35% 29.97 in 10.0 mi WSW 19.6 mph 27.6 mph N/A   Clear
10:53 AM 50.0 °F - 23.0 °F 35% 29.95 in 10.0 mi WSW 27.6 mph 39.1 mph N/A   Clear
11:53 AM 50.0 °F - 24.1 °F 36% 29.94 in 10.0 mi WSW 24.2 mph 35.7 mph N/A   Clear
12:53 PM 50.0 °F - 26.1 °F 39% 29.92 in 10.0 mi WSW 29.9 mph 39.1 mph N/A   Clear
1:53 PM 50.0 °F - 26.1 °F 39% 29.93 in 10.0 mi WSW 29.9 mph 38.0 mph N/A   Clear
2:53 PM 48.0 °F - 27.0 °F 44% 29.95 in 10.0 mi WSW 29.9 mph 38.0 mph N/A   Clear
3:53 PM 48.0 °F - 27.0 °F 44% 29.97 in 10.0 mi WSW 25.3 mph 31.1 mph N/A   Clear
4:53 PM 45.0 °F 38.2 °F 27.0 °F 49% 30.00 in 10.0 mi SW 15.0 mph - N/A   Scattered Clouds
5:53 PM 44.1 °F 36.8 °F 28.0 °F 53% 30.04 in 10.0 mi SW 16.1 mph - N/A   Overcast
6:53 PM 41.0 °F 32.5 °F 28.0 °F 60% 30.06 in 10.0 mi SW 17.3 mph - N/A   Clear
7:53 PM 36.0 °F 28.0 °F 26.1 °F 67% 30.11 in 10.0 mi WSW 11.5 mph - N/A   Clear
8:53 PM 32.0 °F - 25.0 °F 75% 30.12 in 10.0 mi Calm Calm - N/A   Clear
9:53 PM 33.1 °F 24.9 °F 26.1 °F 75% 30.12 in 10.0 mi SW 10.4 mph - N/A   Clear
10:53 PM 32.0 °F 23.6 °F 26.1 °F 79% 30.12 in 10.0 mi SW 10.4 mph - N/A   Clear
11:53 PM 32.0 °F 23.6 °F 25.0 °F 75% 30.11 in 10.0 mi SW 10.4 mph - N/A   Clear